San Antonio, TX

3:09 PM CST on February 25, 2017 (GMT -0600)
Stinson Municipal

Weather History for KSSF - November, 2010

Change the Weather History Date:

Wednesday, November 10, 2010

  Actual Average Record
Temperature  
Mean Temperature 68 °F -  
Max Temperature 84 °F 70 °F 84 °F (2010)
Min Temperature 53 °F 51 °F 37 °F (2000)
Cooling Degree Days 4    
Growing Degree Days 18 (Base 50)    
Moisture  
Dew Point 56 °F    
Average Humidity 79    
Maximum Humidity 100    
Minimum Humidity 35    
Precipitation  
Precipitation 0.00 in - - ()
Sea Level Pressure  
Sea Level Pressure 29.92 in    
Wind  
Wind Speed 3 mph (SE)    
Max Wind Speed 13 mph    
Max Gust Speed 22 mph    
Visibility 6 miles    
Events Fog    
Averages and records for this station are not official NWS values.
T = Trace of Precipitation, MM = Missing Value Source: NWS Daily Summary

Daily Weather History Graph

Daily Weather History Graph

Search for Another Location

Airport or City:

Trip Planner

Search our weather history database for the weather conditions in past years. The results will help you decide how hot, cold, wet, or windy it might be!

Date:

Astronomy

Nov. 10, 2010 Rise Set
Actual Time 6:53 AM CST 5:41 PM CST
Civil Twilight 6:28 AM CST 6:06 PM CST
Nautical Twilight 6:00 AM CST 6:34 PM CST
Astronomical Twilight 5:32 AM CST 7:02 PM CST
Moon 11:10 AM CST (11/10) 9:51 PM CST (11/10)
Length of Visible Light 11h 37m
Length of Day
10h 47m
Waxing Crescent, 23% of the Moon is Illuminated
Nov 10
Waxing Crescent
Nov 13
First Quarter
Nov 21
Full
Nov 28
Last Quarter
Dec 5
New

Hourly Weather History & Observations

Time (CST) Temp. Heat Index Dew Point Humidity Pressure Visibility Wind Dir Wind Speed Gust Speed Precip Events Conditions
12:53 AM 59.0 °F - 55.9 °F 90% 29.88 in 10.0 mi Calm Calm - N/A   Clear
1:53 AM 57.0 °F - 55.0 °F 93% 29.88 in 10.0 mi Calm Calm - N/A   Clear
2:53 AM 57.0 °F - 55.0 °F 93% 29.88 in 4.0 mi Calm Calm - N/A   Clear
3:00 AM 55.4 °F - 55.4 °F 100% 29.90 in 1.8 mi Calm Calm - N/A   Clear
3:16 AM 55.4 °F - 53.6 °F 94% 29.90 in 4.0 mi Calm Calm - N/A   Clear
3:48 AM 53.6 °F - 51.8 °F 94% 29.90 in 1.8 mi Calm Calm - N/A   Clear
3:53 AM 54.0 °F - 51.1 °F 90% 29.88 in 3.0 mi ESE 4.6 mph - N/A   Clear
3:57 AM 53.6 °F - 51.8 °F 94% 29.89 in 1.2 mi ESE 6.9 mph - N/A   Clear
4:04 AM 53.6 °F - 51.8 °F 94% 29.89 in 0.2 mi ESE 5.8 mph - N/A Fog Fog
4:18 AM 57.2 °F - 55.4 °F 94% 29.90 in 4.0 mi Calm Calm - N/A   Scattered Clouds
4:43 AM 55.4 °F - 53.6 °F 94% 29.90 in 1.8 mi Calm Calm - N/A   Clear
4:53 AM 55.9 °F - 54.0 °F 93% 29.88 in 0.5 mi Calm Calm - N/A Fog Fog
5:13 AM 55.4 °F - 55.4 °F 100% 29.91 in 1.2 mi Calm Calm - N/A   Clear
5:17 AM 55.4 °F - 53.6 °F 94% 29.91 in 0.8 mi Calm Calm - N/A   Mist
5:53 AM 54.0 °F - 53.1 °F 97% 29.90 in 0.2 mi Calm Calm - N/A Fog Fog
6:53 AM 53.1 °F - 52.0 °F 96% 29.92 in 0.2 mi Calm Calm - N/A Fog Fog
7:10 AM 53.6 °F - 53.6 °F 100% 29.94 in 2.5 mi Calm Calm - N/A   Mostly Cloudy
7:12 AM 53.6 °F - 53.6 °F 100% 29.94 in 4.0 mi Calm Calm - N/A   Scattered Clouds
7:53 AM 57.9 °F - 57.0 °F 97% 29.94 in 5.0 mi Calm Calm - N/A   Clear
8:53 AM 64.9 °F - 61.0 °F 87% 29.95 in 10.0 mi Calm Calm - N/A   Clear
9:53 AM 70.0 °F - 62.1 °F 76% 29.97 in 10.0 mi Variable 4.6 mph - N/A   Partly Cloudy
10:05 AM 71.6 °F - 62.6 °F 73% 29.99 in 10.0 mi South 4.6 mph - N/A   Mostly Cloudy
10:32 AM 73.4 °F - 62.6 °F 69% 29.99 in 10.0 mi SSW 8.1 mph - N/A   Partly Cloudy
10:53 AM 75.9 °F - 61.0 °F 60% 29.96 in 10.0 mi SW 9.2 mph - N/A   Partly Cloudy
11:53 AM 78.1 °F - 59.0 °F 52% 29.94 in 10.0 mi South 9.2 mph 17.3 mph N/A   Partly Cloudy
12:53 PM 82.0 °F 81.6 °F 55.9 °F 41% 29.91 in 10.0 mi SSE 11.5 mph 21.9 mph N/A   Clear
1:53 PM 82.0 °F 82.0 °F 57.9 °F 44% 29.89 in 10.0 mi SSE 12.7 mph 19.6 mph N/A   Partly Cloudy
2:53 PM 84.0 °F 82.6 °F 54.0 °F 35% 29.88 in 10.0 mi SE 11.5 mph 19.6 mph N/A   Partly Cloudy
3:53 PM 82.9 °F 82.1 °F 55.9 °F 39% 29.88 in 10.0 mi SE 9.2 mph 19.6 mph N/A   Partly Cloudy
4:53 PM 81.0 °F 80.7 °F 55.0 °F 41% 29.89 in 10.0 mi SSE 9.2 mph - N/A   Clear
5:53 PM 77.0 °F - 57.0 °F 50% 29.91 in 10.0 mi ESE 3.5 mph - N/A   Partly Cloudy
6:53 PM 73.0 °F - 57.9 °F 59% 29.93 in 10.0 mi SE 6.9 mph - N/A   Clear
7:53 PM 71.1 °F - 60.1 °F 68% 29.96 in 10.0 mi SE 6.9 mph - N/A   Clear
8:53 PM 69.1 °F - 59.0 °F 70% 29.98 in 10.0 mi SE 8.1 mph - N/A   Clear
9:53 PM 66.9 °F - 59.0 °F 76% 29.99 in 10.0 mi SE 5.8 mph - N/A   Clear
10:53 PM 64.9 °F - 60.1 °F 84% 30.00 in 10.0 mi SE 4.6 mph - N/A   Clear
11:53 PM 64.0 °F - 61.0 °F 90% 30.00 in 10.0 mi ESE 4.6 mph - N/A   Clear